Location: Brownlee
(50.7397°N, 106.0159°W)
Time: 19:43:22
(UTC+00:00)

N. Korean satellite - Visible Passes

Search period start: 27 November 2022 00:00
Search period end: 07 December 2022 00:00
Orbit: 422 x 454 km, 97.3° (Epoch: 26 November)

Date Brightness Start Highest point End Pass type
(mag) Time Alt. Az. Time Alt. Az. Time Alt. Az.
27 Nov 6.3 12:41:38 10° N 12:45:05 75° WNW 12:48:30 10° SSW visible
28 Nov 8.0 12:03:10 10° NNE 12:06:23 36° E 12:09:34 10° SSE visible
28 Nov 7.8 13:36:10 10° NNW 13:38:41 19° WNW 13:41:11 10° WSW visible
29 Nov 9.0 00:09:58 10° SSW 00:12:49 25° W 00:15:42 10° NW visible
29 Nov 9.7 11:25:34 10° ENE 11:27:26 14° E 11:29:18 10° ESE visible
29 Nov 6.6 12:56:54 10° N 13:00:14 48° WNW 13:03:33 10° SSW visible
30 Nov 7.1 12:18:09 10° NNE 12:21:33 55° E 12:24:53 10° S visible
30 Nov 8.2 13:51:49 10° NNW 13:53:40 14° WNW 13:55:30 10° W visible
01 Dec 9.6 00:25:39 10° SW 00:28:00 18° W 00:30:23 10° NW visible
01 Dec 9.1 11:40:01 10° NE 11:42:37 20° E 11:45:11 10° SE visible
01 Dec 7.1 13:12:06 10° N 13:15:13 33° WNW 13:18:18 10° SW visible
01 Dec 7.6 23:45:45 10° S 23:49:01 48° W 23:52:21 10° NNW visible
02 Dec 6.4 12:33:06 10° NNE 12:36:33 85° ESE 12:39:56 10° SSW visible
02 Dec 8.5 14:08:16 10° NW 14:08:28 10° WNW 14:08:39 10° WNW visible
03 Dec 9.9 00:41:37 10° WSW 00:43:05 12° W 00:44:34 10° WNW visible
03 Dec 8.5 11:54:36 10° NE 11:57:37 28° E 12:00:36 10° SSE visible
03 Dec 7.5 13:27:15 10° NNW 13:30:02 23° WNW 13:32:47 10° WSW visible
04 Dec 8.5 00:00:52 10° SSW 00:03:57 32° W 00:07:03 10° NNW visible
04 Dec 9.9 11:17:28 10° ENE 11:18:27 11° E 11:19:25 10° ESE visible
04 Dec 6.3 12:47:58 10° N 12:51:22 63° WNW 12:54:43 10° SSW visible
05 Dec 7.6 12:09:11 10° NNE 12:12:28 42° E 12:15:41 10° S visible
05 Dec 7.9 13:42:24 10° NNW 13:44:40 17° WNW 13:46:55 10° WSW visible
06 Dec 9.2 00:16:03 10° SSW 00:18:46 22° W 00:21:31 10° NW visible
06 Dec 9.5 11:31:09 10° NE 11:33:17 16° E 11:35:25 10° SE visible
06 Dec 6.7 13:02:46 10° N 13:06:01 41° WNW 13:09:13 10° SW visible
06 Dec 7.0 23:36:19 10° S 23:39:39 63° WSW 23:43:05 10° NNW visible
